Weather reports worldwide

Advertisment
Boulogne, France (7002): temperature & dewpoint: 17.05.2019 14:00:00 - 23.05.2019 14:00:00 (CEST)Boulogne, France (7002): wind speed & gusts: 17.05.2019 14:00:00 - 23.05.2019 14:00:00 (CEST)Boulogne, France (7002): wind direction: 17.05.2019 14:00:00 - 23.05.2019 14:00:00 (CEST)Boulogne, France (7002): reduced air pressure: 17.05.2019 14:00:00 - 23.05.2019 14:00:00 (CEST)Boulogne, France (7002): visibility: 17.05.2019 14:00:00 - 23.05.2019 14:00:00 (CEST)Boulogne, France (7002): precipitation: 17.05.2019 14:00:00 - 23.05.2019 14:00:00 (CEST)
Date & Time tt [°C] td [°C] ff [km/h] ff [kn] fx [km/h] fx [kn] dd ppp [hPa] vv [km] rr [mm]
23.05.2019 14:00:00 19,9 8,9 24 13 42 23 SW 1017,5 15 0,0
23.05.2019 13:00:00 19,8 8,2 19 11 35 19 SSW 1017,9 - 0,0
23.05.2019 12:00:00 18,5 6,0 14 8 26 14 SSW 1018,2 - 0,0
23.05.2019 11:00:00 16,9 6,4 10 5 16 8 SW 1018,5 15 0,0
23.05.2019 10:00:00 15,5 6,8 7 4 12 6 WSW 1018,7 - 0,0
23.05.2019 09:00:00 14,5 8,9 5 3 11 6 SSE 1018,7 - 0,0
23.05.2019 08:00:00 12,7 8,0 5 3 11 6 SE 1018,8 15 0,0
23.05.2019 07:00:00 10,6 6,7 7 4 13 7 SSE 1018,6 - 0,0
23.05.2019 06:00:00 9,8 6,9 9 5 14 8 SSE 1018,7 - 0,0
23.05.2019 05:00:00 9,7 7,6 9 5 14 8 S 1018,8 10 0,2
23.05.2019 04:00:00 10,3 8,6 8 5 16 9 SSE 1019,2 - 0,0
23.05.2019 03:00:00 10,6 9,0 10 5 19 10 SSE 1019,3 - 0,0
23.05.2019 02:00:00 10,7 9,0 11 6 21 11 SE 1019,5 15 0,0
23.05.2019 01:00:00 11,2 8,8 11 6 20 11 SSE 1019,8 - 0,0
23.05.2019 00:00:00 11,6 9,7 11 6 19 10 SE 1019,8 - 0,0
22.05.2019 23:00:00 11,9 10,8 11 6 18 10 SSE 1020,2 15 0,0
22.05.2019 22:00:00 12,7 10,8 10 5 16 8 SSE 1020,2 - 0,0
22.05.2019 21:00:00 13,8 10,8 9 5 15 8 SW 1020,0 - 0,0
22.05.2019 20:00:00 15,5 11,3 7 4 13 7 WSW 1020,0 - 0,0
22.05.2019 19:00:00 16,0 10,5 7 4 14 8 WSW 1020,1 - 0,0
22.05.2019 18:00:00 16,0 10,1 7 4 11 6 WSW 1020,3 - 0,0
22.05.2019 17:00:00 15,6 7,4 6 4 11 6 W 1020,6 - 0,0
22.05.2019 16:00:00 15,7 3,8 5 3 13 7 WNW 1020,8 - 0,0
22.05.2019 15:00:00 15,8 5,1 9 5 16 8 W 1021,0 - 0,0
22.05.2019 14:00:00 15,6 6,6 8 4 19 10 NW 1021,0 20 0,0
22.05.2019 13:00:00 16,9 8,1 14 8 21 12 NNW 1021,0 - 0,0
22.05.2019 12:00:00 15,4 8,6 11 6 18 10 NNW 1020,9 - 0,0
22.05.2019 11:00:00 15,3 9,4 6 4 15 8 NE 1020,6 10 0,0
22.05.2019 10:00:00 14,3 8,7 9 5 16 9 N 1020,7 - 0,0
22.05.2019 09:00:00 12,7 10,4 7 4 12 7 N 1020,5 - 0,0
22.05.2019 08:00:00 11,9 10,8 5 3 8 4 SE 1020,3 10 0,0
22.05.2019 07:00:00 11,4 10,6 3 1 10 5 SSE 1020,0 - 0,0
22.05.2019 06:00:00 10,7 9,8 9 5 18 10 SE 1019,9 - 0,0
22.05.2019 05:00:00 10,2 9,1 11 6 18 10 SE 1019,9 - 0,0
22.05.2019 04:00:00 10,6 9,4 11 6 18 10 SE 1019,9 - 0,0
22.05.2019 03:00:00 10,3 8,6 11 6 18 10 SSE 1019,9 - 0,0
22.05.2019 02:00:00 10,8 8,4 11 6 17 9 SE 1019,7 10 0,0
22.05.2019 01:00:00 11,6 8,6 10 5 14 8 SSE 1019,7 - 0,0
22.05.2019 00:00:00 12,0 8,5 9 5 14 8 SSE 1019,7 - 0,0
21.05.2019 23:00:00 12,7 8,4 8 5 12 7 S 1019,7 7 0,0
21.05.2019 22:00:00 13,5 8,1 7 4 16 9 SSW 1019,6 - 0,0
21.05.2019 21:00:00 14,2 8,4 9 5 18 10 SW 1019,3 - 0,0
21.05.2019 20:00:00 14,8 9,4 6 3 15 8 SW 1019,1 - 0,0
21.05.2019 19:00:00 15,1 10,3 9 5 17 9 W 1019,1 - 0,0
21.05.2019 18:00:00 16,0 10,7 9 5 18 10 W 1018,8 - 0,0
21.05.2019 17:00:00 15,9 11,3 11 6 19 10 W 1018,8 7 0,0
21.05.2019 16:00:00 16,4 10,7 10 5 16 9 W 1018,6 - 0,0
21.05.2019 15:00:00 15,3 10,1 8 4 15 8 WNW 1018,5 - 0,0
21.05.2019 14:00:00 14,7 10,3 8 5 18 10 NW 1018,4 6 0,0
21.05.2019 13:00:00 15,7 11,1 13 7 26 14 NNW 1018,2 - 0,0
21.05.2019 12:00:00 15,0 10,6 16 9 26 14 NNW 1017,9 - 0,0
21.05.2019 11:00:00 14,9 11,5 18 10 27 15 N 1017,6 - 0,0
21.05.2019 10:00:00 15,1 10,5 11 6 21 12 NNE 1017,2 - 0,0
21.05.2019 09:00:00 13,7 11,9 10 5 20 11 N 1016,8 - 0,0
21.05.2019 08:00:00 12,5 12,0 5 3 8 4 N 1016,7 2,0 0,0
21.05.2019 07:00:00 11,1 10,6 3 2 5 3 W 1016,0 - 0,0
21.05.2019 06:00:00 10,5 10,0 0 0 8 4 N 1015,6 - 0,2
21.05.2019 05:00:00 10,4 9,8 6 3 8 5 SE 1015,5 8 0,0
21.05.2019 04:00:00 10,8 10,0 4 2 7 4 SSE 1015,4 - 0,0
21.05.2019 03:00:00 10,8 9,9 4 2 6 4 SSE 1015,1 - 0,0
21.05.2019 02:00:00 11,0 9,9 5 3 10 5 SSE 1015,2 8 0,0
21.05.2019 01:00:00 11,3 9,9 5 3 8 5 SSE 1015,3 - 0,0
21.05.2019 00:00:00 11,8 10,4 2 1 7 4 WSW 1015,2 - 0,0
20.05.2019 23:00:00 11,8 10,2 4 2 11 6 WSW 1015,0 - 0,0
20.05.2019 22:00:00 12,2 10,1 5 3 15 8 W 1014,4 - 0,0
20.05.2019 21:00:00 13,1 10,3 6 3 21 11 W 1014,0 - 0,0
20.05.2019 20:00:00 14,2 10,8 9 5 18 10 W 1013,7 8 0,0
20.05.2019 19:00:00 14,4 11,2 10 6 19 10 WNW 1013,5 - 0,0
20.05.2019 18:00:00 13,9 11,4 11 6 28 15 NW 1013,5 - 0,0
20.05.2019 17:00:00 16,1 11,3 13 7 23 12 NNW 1013,2 8 0,0
20.05.2019 16:00:00 15,5 11,1 13 7 23 12 NNW 1013,1 - 0,0
20.05.2019 15:00:00 14,8 11,4 14 7 29 16 NNW 1013,0 - 0,0
20.05.2019 14:00:00 14,4 10,6 21 11 32 18 N 1012,6 15 0,0
20.05.2019 13:00:00 14,0 10,4 20 11 32 18 NNW 1012,2 - 0,0
20.05.2019 12:00:00 12,7 10,2 16 9 29 16 NNW 1011,9 - 0,0
20.05.2019 11:00:00 12,9 10,6 16 9 28 15 N 1011,7 - 0,0
20.05.2019 10:00:00 12,3 10,9 16 8 26 14 N 1011,5 - 0,0
20.05.2019 09:00:00 11,9 10,8 10 5 22 12 N 1011,2 - 0,0
20.05.2019 08:00:00 11,3 10,4 11 6 19 10 N 1010,9 10 0,0
20.05.2019 07:00:00 11,1 10,5 11 6 19 10 NNW 1010,3 - 0,0
20.05.2019 06:00:00 10,9 10,4 8 5 16 9 N 1010,2 - 0,0
20.05.2019 05:00:00 11,0 10,4 11 6 20 11 NNW 1010,1 - 0,0
20.05.2019 04:00:00 10,9 10,3 9 5 16 8 N 1010,3 - 0,0
20.05.2019 03:00:00 11,0 10,2 10 5 17 9 NNE 1010,5 - 0,0
20.05.2019 02:00:00 11,0 10,2 9 5 21 12 N 1010,7 - 0,0
20.05.2019 01:00:00 10,9 10,1 12 6 19 11 N 1010,8 - 0,0
20.05.2019 00:00:00 10,9 10,0 8 5 16 9 N 1010,8 - 0,0
19.05.2019 23:00:00 10,7 9,8 8 4 18 10 N 1010,7 12 0,0
19.05.2019 22:00:00 10,7 9,6 9 5 16 9 N 1010,5 - 0,4
19.05.2019 21:00:00 11,0 9,4 9 5 18 10 N 1010,1 - 0,4
19.05.2019 20:00:00 12,3 8,9 11 6 27 14 NNE 1009,5 - 0,0
19.05.2019 19:00:00 12,7 8,8 18 10 29 15 NNE 1009,3 - 0,0
19.05.2019 18:00:00 13,3 9,0 14 8 31 17 NNE 1009,4 - 0,0
19.05.2019 17:00:00 12,9 8,8 18 10 31 17 NNE 1009,4 - 0,0
19.05.2019 16:00:00 13,0 9,4 18 10 29 16 NNE 1009,4 - 0,2
19.05.2019 15:00:00 12,8 10,3 10 6 26 14 NE 1009,4 - 0,0
19.05.2019 14:00:00 12,8 10,0 15 8 31 17 ENE 1009,4 6 0,2
19.05.2019 13:00:00 14,2 9,8 11 6 29 16 NE 1009,1 - 0,0
19.05.2019 12:00:00 14,2 8,6 13 7 32 17 NE 1008,9 - 0,0
19.05.2019 11:00:00 14,1 8,9 15 8 39 21 NE 1008,5 - 0,0
19.05.2019 10:00:00 13,7 9,7 10 6 32 17 NE 1008,2 - 0,0
19.05.2019 09:00:00 12,4 9,9 12 6 23 13 NNE 1008,0 - 0,0
19.05.2019 08:00:00 11,5 10,1 9 5 21 12 NE 1007,9 1,5 0,0
19.05.2019 07:00:00 11,0 10,2 8 4 18 10 NE 1007,7 - 0,0
19.05.2019 06:00:00 11,0 10,1 10 5 20 11 NNE 1007,6 - 0,0
19.05.2019 05:00:00 11,3 10,4 10 5 25 14 ENE 1007,5 - 0,0
19.05.2019 04:00:00 11,4 10,3 13 7 22 12 NE 1007,6 - 0,0
19.05.2019 03:00:00 11,5 9,7 8 5 14 8 NNE 1007,8 - 0,0
19.05.2019 02:00:00 11,9 9,3 8 4 11 6 NNE 1008,0 - 0,2
19.05.2019 01:00:00 12,2 9,6 6 4 23 12 SSE 1008,2 - 0,0
19.05.2019 00:00:00 12,7 8,4 14 8 24 13 ENE 1007,8 - 0,0
18.05.2019 23:00:00 12,2 9,2 8 4 17 9 NE 1008,1 3,0 3,3
18.05.2019 22:00:00 12,3 10,0 10 6 17 9 E 1008,1 - 3,6
18.05.2019 21:00:00 13,4 9,3 7 4 24 13 NE 1007,4 - 0,2
18.05.2019 20:00:00 14,6 9,2 11 6 24 13 ENE 1006,8 - 0,0
18.05.2019 19:00:00 14,8 9,8 11 6 25 13 NE 1006,4 - 0,0
18.05.2019 18:00:00 15,3 10,3 13 7 27 15 NNE 1006,2 - 0,0
18.05.2019 17:00:00 15,6 10,4 15 8 29 16 NNE 1006,3 - 0,0
18.05.2019 16:00:00 14,1 11,4 10 5 27 15 N 1006,4 - 0,2
18.05.2019 15:00:00 15,2 10,6 12 7 36 19 N 1006,1 - 0,0
18.05.2019 14:00:00 15,4 11,4 17 9 30 16 NNW 1006,0 3,0 0,0
18.05.2019 13:00:00 14,6 11,4 18 10 27 14 NNW 1006,1 - 0,0
18.05.2019 12:00:00 14,4 11,2 14 7 24 13 NNW 1006,1 - 0,0
18.05.2019 11:00:00 15,2 9,8 6 3 16 9 N 1005,9 7 0,0
18.05.2019 10:00:00 14,1 9,3 8 5 16 8 E 1005,9 - 0,0
18.05.2019 09:00:00 13,3 9,0 8 4 16 8 E 1005,8 - 0,0
18.05.2019 08:00:00 11,9 9,1 9 5 14 8 E 1005,6 3,0 0,0
18.05.2019 07:00:00 10,4 8,5 4 2 14 8 E 1005,5 - 0,0
18.05.2019 06:00:00 10,9 8,8 8 5 16 9 ENE 1005,2 - 0,0
18.05.2019 05:00:00 10,9 9,0 12 6 16 9 ENE 1005,5 6 0,0
18.05.2019 04:00:00 10,9 9,0 8 4 16 9 NE 1005,6 - 0,0
18.05.2019 03:00:00 10,9 9,0 13 7 18 10 ENE 1005,8 - 0,0
18.05.2019 02:00:00 10,9 9,0 11 6 16 9 ENE 1006,0 - 0,0
18.05.2019 01:00:00 10,9 9,2 11 6 22 12 ENE 1006,1 - 0,0
18.05.2019 00:00:00 10,9 9,3 14 8 21 12 ENE 1006,1 - 0,0
17.05.2019 23:00:00 11,1 9,2 14 8 22 12 ENE 1006,2 7 0,0
17.05.2019 22:00:00 11,3 9,0 14 8 25 13 ENE 1006,3 - 0,0
17.05.2019 21:00:00 11,7 8,9 17 9 24 13 ENE 1006,1 - 0,0
17.05.2019 20:00:00 12,1 8,9 14 8 26 14 ENE 1006,0 6 0,0
17.05.2019 19:00:00 12,5 8,6 16 9 29 16 ENE 1006,1 - 0,0
17.05.2019 18:00:00 12,9 8,8 13 7 29 16 ENE 1006,4 - 0,0
17.05.2019 17:00:00 13,1 8,6 13 7 29 15 NE 1006,7 6 0,0
17.05.2019 16:00:00 12,9 8,6 16 8 29 16 NE 1006,8 - 0,0
17.05.2019 15:00:00 13,1 8,6 11 6 29 16 NE 1007,0 - 0,0
17.05.2019 14:00:00 12,9 8,6 12 6 24 13 ENE 1007,0 9 0,0

tt = temperature
td = dewpoint
ff = wind speed
fx = gusts
dd = wind direction
ppp = reduced air pressure
vv = visibility
rr = precipitation

Next stations